Вернуться в каталог

NIMBUS 2 DEB

АктивенLEO
NORAD 28621·DEBRIS·🇺🇸 United States

Запущен May 15, 1966 с Vandenberg Space Force Base

Loading…

Ближайшие Пролёты (ближайшие 24 часа)

TLE

СвежийSource: Space-Track

Эпоха: Sep 13, 2026, 23:13 UTC

1 28621U 66040AM  26256.96743764  .00007381  00000-0  27010-2 0  9993
2 28621 100.2516 147.9910 0031606 339.8542  20.1387 14.32979362729428

Отслеживайте NIMBUS 2 DEB в реальном времени с AllMySat

Download on the App Store